{"data":{"norad_id":51984,"epoch":"2026-09-19T11:42:06.781536Z","epoch_age_seconds":143678,"freshness":"FRESH","line1":"1 51984U 22025AE  26262.48757849  .00002674  00000+0  87579-4 0  9996","line2":"2 51984  53.1617 240.3532 0001514  97.1528 262.9647 15.35391427250434","mean_motion":15.35391427,"eccentricity":0.0001514,"inclination_deg":53.1617,"raan_deg":240.3532,"arg_perigee_deg":97.1528,"mean_anomaly_deg":262.9647,"bstar":8.7579e-5,"rev_number":25043,"period_min":93.787159070805,"perigee_km":458.72283865148,"apogee_km":460.79335328654,"semimajor_km":6837.895095969,"source":"CELESTRAK","updated_at":"2026-09-20T09:00:39.979754Z"}}